DLH6YX EDDF-EDDP

Flight info

Callsign DLH6YX
Flight time 0h 44m
Altitude 23000
Route SULUS7S SULUS Z12 LASGA/N0351F220 T953 VOCIM/N0345F210 T954 GOXLI GOXLI1V
Aircraft A319/M-SDE2E3FGIJ1LORWXYZ/HB1

Departure

Time 2026-05-06 13:04
Airport Frankfurt Main Airport (EDDF)

Arrival

Time 2026-05-06 13:48
Airport Leipzig/Halle Airport (EDDP)
Time Latitude Longitude Altitude Speed Heading
2026-05-06 12:32 50.04532 8.56589 364 ft 0 kts 115°
2026-05-06 12:53 50.04537 8.56572 364 ft 4 kts 115°
2026-05-06 12:53 50.04549 8.56535 356 ft 4 kts 118°
2026-05-06 12:53 50.04562 8.56499 361 ft 4 kts 127°
2026-05-06 12:53 50.04580 8.56471 362 ft 4 kts 163°
2026-05-06 12:54 50.04589 8.56467 360 ft 4 kts 205°
2026-05-06 12:54 50.04569 8.56453 361 ft 1 kts 205°
2026-05-06 12:58 50.04568 8.56453 361 ft 1 kts 205°
2026-05-06 12:58 50.04531 8.56420 360 ft 12 kts 222°
2026-05-06 12:58 50.04495 8.56298 360 ft 13 kts 249°
2026-05-06 12:59 50.04463 8.56158 359 ft 14 kts 251°
2026-05-06 12:59 50.04412 8.56034 363 ft 14 kts 197°
2026-05-06 12:59 50.04313 8.56072 355 ft 15 kts 163°
2026-05-06 12:59 50.04244 8.55956 356 ft 18 kts 249°
2026-05-06 13:00 50.04192 8.55743 357 ft 22 kts 250°
2026-05-06 13:00 50.04136 8.55510 355 ft 23 kts 249°
2026-05-06 13:00 50.04080 8.55276 361 ft 23 kts 249°
2026-05-06 13:00 50.04025 8.55046 353 ft 23 kts 250°
2026-05-06 13:01 50.03969 8.54809 352 ft 24 kts 250°
2026-05-06 13:01 50.03909 8.54557 354 ft 25 kts 249°
2026-05-06 13:01 50.03832 8.54306 350 ft 26 kts 233°
2026-05-06 13:01 50.03757 8.54049 348 ft 26 kts 249°
2026-05-06 13:02 50.03694 8.53784 343 ft 26 kts 249°
2026-05-06 13:02 50.03629 8.53519 339 ft 26 kts 249°
2026-05-06 13:02 50.03563 8.53247 337 ft 27 kts 249°
2026-05-06 13:02 50.03495 8.52971 336 ft 28 kts 249°
2026-05-06 13:03 50.03425 8.52697 333 ft 24 kts 248°
2026-05-06 13:03 50.03326 8.52593 336 ft 16 kts 181°
2026-05-06 13:03 50.03300 8.52594 334 ft 0 kts 178°
2026-05-06 13:03 50.03292 8.52595 333 ft 6 kts 178°
2026-05-06 13:04 50.02979 8.52597 336 ft 87 kts 180°
2026-05-06 13:04 50.02139 8.52604 336 ft 152 kts 180°
2026-05-06 13:04 50.01040 8.52611 913 ft 158 kts 182°
2026-05-06 13:04 49.99934 8.52619 1723 ft 162 kts 181°
2026-05-06 13:05 49.98733 8.52621 2231 ft 183 kts 182°
2026-05-06 13:05 49.97388 8.52915 2601 ft 212 kts 161°
2026-05-06 13:05 49.96127 8.54294 3279 ft 233 kts 133°
2026-05-06 13:05 49.95271 8.56460 4298 ft 238 kts 122°
2026-05-06 13:06 49.94474 8.58727 5307 ft 242 kts 118°
2026-05-06 13:06 49.94020 8.61299 6146 ft 260 kts 98°
2026-05-06 13:06 49.93894 8.64229 6758 ft 281 kts 95°
2026-05-06 13:06 49.93595 8.67252 7659 ft 286 kts 109°
2026-05-06 13:07 49.92719 8.70035 8624 ft 288 kts 128°
2026-05-06 13:07 49.91323 8.72255 9621 ft 289 kts 146°
2026-05-06 13:07 49.89665 8.74123 10278 ft 306 kts 143°
2026-05-06 13:07 49.88140 8.76588 10837 ft 326 kts 129°
2026-05-06 13:08 49.86953 8.79580 11673 ft 334 kts 121°
2026-05-06 13:08 49.85807 8.82791 12588 ft 338 kts 121°
2026-05-06 13:08 49.84670 8.85941 13471 ft 342 kts 121°
2026-05-06 13:08 49.83499 8.89169 14274 ft 346 kts 122°
2026-05-06 13:09 49.82314 8.92427 15066 ft 349 kts 122°
2026-05-06 13:09 49.81117 8.95712 15860 ft 352 kts 122°
2026-05-06 13:09 49.79909 8.99019 16659 ft 354 kts 122°
2026-05-06 13:09 49.78688 9.02355 17454 ft 358 kts 122°
2026-05-06 13:10 49.77457 9.05718 18212 ft 361 kts 122°
2026-05-06 13:10 49.76318 9.09208 18862 ft 367 kts 114°
2026-05-06 13:10 49.75582 9.13023 19509 ft 373 kts 105°
2026-05-06 13:10 49.74970 9.16943 20169 ft 376 kts 106°
2026-05-06 13:11 49.74346 9.20883 20836 ft 380 kts 106°
2026-05-06 13:11 49.73703 9.24862 21493 ft 383 kts 106°
2026-05-06 13:11 49.73049 9.28875 22153 ft 387 kts 106°
2026-05-06 13:11 49.72387 9.32926 22654 ft 390 kts 106°
2026-05-06 13:12 49.71720 9.36987 22769 ft 386 kts 106°
2026-05-06 13:12 49.71080 9.40925 22786 ft 369 kts 106°
2026-05-06 13:12 49.70468 9.44697 22789 ft 358 kts 106°
2026-05-06 13:12 49.69863 9.48407 22789 ft 355 kts 107°
2026-05-06 13:13 49.69255 9.52095 22780 ft 354 kts 107°
2026-05-06 13:13 49.68644 9.55778 22786 ft 354 kts 107°
2026-05-06 13:13 49.68032 9.59454 22784 ft 354 kts 107°
2026-05-06 13:13 49.67445 9.63142 22784 ft 355 kts 103°
2026-05-06 13:14 49.67242 9.66950 22785 ft 358 kts 90°
2026-05-06 13:14 49.67550 9.70768 22791 ft 361 kts 78°
2026-05-06 13:14 49.68211 9.74501 22790 ft 361 kts 76°
2026-05-06 13:14 49.68880 9.78245 22784 ft 361 kts 76°
2026-05-06 13:15 49.69541 9.81993 22794 ft 361 kts 77°
2026-05-06 13:15 49.70198 9.85749 22795 ft 361 kts 77°
2026-05-06 13:15 49.70849 9.89496 22795 ft 361 kts 77°
2026-05-06 13:15 49.71574 9.93215 22784 ft 362 kts 70°
2026-05-06 13:16 49.72711 9.96696 22781 ft 364 kts 58°
2026-05-06 13:16 49.74174 9.99890 22761 ft 365 kts 56°
2026-05-06 13:16 49.75655 10.03076 22766 ft 365 kts 56°
2026-05-06 13:16 49.77133 10.06275 22764 ft 365 kts 55°
2026-05-06 13:17 49.78605 10.09472 22778 ft 365 kts 55°
2026-05-06 13:17 49.80059 10.12635 22767 ft 365 kts 55°
2026-05-06 13:17 49.81532 10.15833 22777 ft 365 kts 55°
2026-05-06 13:17 49.83026 10.19076 22783 ft 365 kts 55°
2026-05-06 13:18 49.84499 10.22276 22783 ft 365 kts 55°
2026-05-06 13:18 49.85972 10.25482 22783 ft 365 kts 55°
2026-05-06 13:18 49.87423 10.28644 22781 ft 365 kts 55°
2026-05-06 13:18 49.88913 10.31899 22781 ft 365 kts 55°
2026-05-06 13:19 49.90377 10.35103 22784 ft 365 kts 55°
2026-05-06 13:19 49.91823 10.38274 22782 ft 365 kts 55°
2026-05-06 13:19 49.93290 10.41491 22792 ft 365 kts 55°
2026-05-06 13:19 49.94757 10.44705 22791 ft 365 kts 55°
2026-05-06 13:20 49.96226 10.47919 22781 ft 365 kts 54°
2026-05-06 13:20 49.97695 10.51140 22774 ft 365 kts 55°
2026-05-06 13:20 49.99160 10.54370 22754 ft 366 kts 56°
2026-05-06 13:20 50.00621 10.57598 22756 ft 366 kts 56°
2026-05-06 13:21 50.02100 10.60834 22767 ft 367 kts 53°
2026-05-06 13:21 50.03858 10.63695 22778 ft 367 kts 44°
2026-05-06 13:21 50.05710 10.66437 22781 ft 368 kts 44°
2026-05-06 13:21 50.07563 10.69182 22780 ft 368 kts 44°
2026-05-06 13:22 50.09414 10.71930 22778 ft 368 kts 44°
2026-05-06 13:22 50.11292 10.74738 22784 ft 385 kts 44°
2026-05-06 13:22 50.13197 10.77591 22779 ft 374 kts 44°
2026-05-06 13:22 50.15065 10.80378 22784 ft 369 kts 43°
2026-05-06 13:23 50.16924 10.83145 22786 ft 369 kts 43°
2026-05-06 13:23 50.18782 10.85906 22786 ft 369 kts 43°
2026-05-06 13:23 50.20641 10.88670 22721 ft 370 kts 43°
2026-05-06 13:23 50.22500 10.91444 22439 ft 369 kts 43°
2026-05-06 13:24 50.24353 10.94211 22170 ft 368 kts 43°
2026-05-06 13:24 50.26199 10.96968 21901 ft 367 kts 43°
2026-05-06 13:24 50.28037 10.99721 21630 ft 365 kts 44°
2026-05-06 13:24 50.29863 11.02465 21374 ft 364 kts 44°
2026-05-06 13:25 50.31690 11.05208 21111 ft 363 kts 44°
2026-05-06 13:25 50.33483 11.07900 20854 ft 361 kts 44°
2026-05-06 13:25 50.35291 11.10619 20602 ft 361 kts 44°
2026-05-06 13:25 50.37104 11.13348 20353 ft 361 kts 44°
2026-05-06 13:26 50.38912 11.16079 20082 ft 361 kts 44°
2026-05-06 13:26 50.40712 11.18803 19832 ft 359 kts 44°
2026-05-06 13:26 50.42503 11.21523 19584 ft 358 kts 44°
2026-05-06 13:26 50.44293 11.24240 19338 ft 357 kts 44°
2026-05-06 13:27 50.46075 11.26945 19092 ft 356 kts 44°
2026-05-06 13:27 50.47852 11.29638 18851 ft 355 kts 44°
2026-05-06 13:27 50.49627 11.32330 18610 ft 354 kts 44°
2026-05-06 13:27 50.51393 11.35015 18371 ft 353 kts 45°
2026-05-06 13:28 50.53149 11.37694 18128 ft 352 kts 45°
2026-05-06 13:28 50.54899 11.40364 17871 ft 350 kts 45°
2026-05-06 13:28 50.56647 11.43032 17606 ft 349 kts 45°
2026-05-06 13:28 50.58381 11.45680 17331 ft 347 kts 45°
2026-05-06 13:29 50.60112 11.48324 17056 ft 346 kts 44°
2026-05-06 13:29 50.61832 11.50957 16798 ft 344 kts 45°
2026-05-06 13:29 50.63544 11.53579 16532 ft 343 kts 45°
2026-05-06 13:29 50.65244 11.56189 16273 ft 341 kts 45°
2026-05-06 13:30 50.66940 11.58800 16009 ft 340 kts 45°
2026-05-06 13:30 50.68626 11.61393 15754 ft 338 kts 45°
2026-05-06 13:30 50.70306 11.63982 15505 ft 337 kts 45°
2026-05-06 13:30 50.71979 11.66559 15254 ft 335 kts 45°
2026-05-06 13:31 50.73641 11.69123 15006 ft 334 kts 45°
2026-05-06 13:31 50.74741 11.70822 14851 ft 333 kts 44°
2026-05-06 13:31 50.76398 11.73388 14601 ft 333 kts 44°
2026-05-06 13:31 50.78583 11.76776 14279 ft 332 kts 44°
2026-05-06 13:32 50.80226 11.79324 14023 ft 331 kts 44°
2026-05-06 13:32 50.81869 11.81864 13784 ft 330 kts 45°
2026-05-06 13:32 50.83504 11.84394 13543 ft 329 kts 45°
2026-05-06 13:32 50.84602 11.86101 13365 ft 327 kts 45°
2026-05-06 13:33 50.86225 11.88624 13093 ft 326 kts 45°
2026-05-06 13:33 50.87818 11.91105 12821 ft 324 kts 45°
2026-05-06 13:33 50.89423 11.93610 12569 ft 323 kts 45°
2026-05-06 13:33 50.91019 11.96103 12305 ft 322 kts 45°
2026-05-06 13:34 50.92606 11.98582 12049 ft 320 kts 45°
2026-05-06 13:34 50.94193 12.01060 11792 ft 319 kts 45°
2026-05-06 13:34 50.95770 12.03524 11547 ft 318 kts 44°
2026-05-06 13:34 50.97344 12.05987 11296 ft 318 kts 45°
2026-05-06 13:35 50.98912 12.08442 11045 ft 316 kts 45°
2026-05-06 13:35 51.00474 12.10900 10797 ft 315 kts 45°
2026-05-06 13:35 51.02024 12.13342 10550 ft 314 kts 45°
2026-05-06 13:35 51.03570 12.15778 10307 ft 313 kts 45°
2026-05-06 13:36 51.05113 12.18202 10063 ft 311 kts 44°
2026-05-06 13:36 51.06651 12.20616 9855 ft 310 kts 45°
2026-05-06 13:36 51.08184 12.23029 9761 ft 309 kts 45°
2026-05-06 13:36 51.09709 12.25434 9773 ft 309 kts 45°
2026-05-06 13:37 51.11238 12.27852 9775 ft 310 kts 45°
2026-05-06 13:37 51.12761 12.30268 9776 ft 310 kts 45°
2026-05-06 13:37 51.14289 12.32687 9775 ft 309 kts 45°
2026-05-06 13:37 51.15795 12.35073 9775 ft 309 kts 45°
2026-05-06 13:38 51.17336 12.37522 9775 ft 308 kts 45°
2026-05-06 13:38 51.18831 12.39900 9775 ft 308 kts 45°
2026-05-06 13:38 51.20372 12.42350 9774 ft 308 kts 45°
2026-05-06 13:38 51.21884 12.44755 9636 ft 306 kts 45°
2026-05-06 13:39 51.23370 12.47117 9201 ft 305 kts 45°
2026-05-06 13:39 51.24871 12.49509 8770 ft 304 kts 45°
2026-05-06 13:39 51.26360 12.51885 8376 ft 302 kts 45°
2026-05-06 13:39 51.27840 12.54253 7963 ft 300 kts 45°
2026-05-06 13:40 51.29305 12.56609 7561 ft 298 kts 45°
2026-05-06 13:40 51.30761 12.58955 7160 ft 296 kts 45°
2026-05-06 13:40 51.32203 12.61287 6770 ft 294 kts 45°
2026-05-06 13:40 51.33636 12.63598 6377 ft 292 kts 44°
2026-05-06 13:41 51.35270 12.65458 5958 ft 287 kts 20°
2026-05-06 13:41 51.37190 12.66194 5535 ft 282 kts
2026-05-06 13:41 51.39123 12.66632 5217 ft 276 kts
2026-05-06 13:41 51.40978 12.67024 5087 ft 263 kts
2026-05-06 13:42 51.42748 12.67399 4952 ft 251 kts
2026-05-06 13:42 51.44462 12.67687 4676 ft 244 kts 356°
2026-05-06 13:42 51.46006 12.66852 4353 ft 232 kts 317°
2026-05-06 13:42 51.46798 12.64728 4010 ft 222 kts 276°
2026-05-06 13:43 51.46492 12.62395 3747 ft 215 kts 237°
2026-05-06 13:43 51.45644 12.60489 3605 ft 206 kts 235°
2026-05-06 13:43 51.45023 12.58488 3480 ft 198 kts 253°
2026-05-06 13:43 51.44757 12.56396 3398 ft 186 kts 261°
2026-05-06 13:44 51.44619 12.54371 3211 ft 180 kts 262°
2026-05-06 13:44 51.44518 12.52372 3030 ft 181 kts 263°
2026-05-06 13:44 51.44425 12.50355 3000 ft 182 kts 264°
2026-05-06 13:44 51.44335 12.48331 2985 ft 182 kts 264°
2026-05-06 13:45 51.44244 12.46292 2830 ft 185 kts 265°
2026-05-06 13:45 51.44074 12.42452 2417 ft 154 kts 265°
2026-05-06 13:45 51.44002 12.40832 2219 ft 139 kts 265°
2026-05-06 13:46 51.43936 12.39340 2040 ft 131 kts 265°
2026-05-06 13:46 51.43871 12.37898 1869 ft 129 kts 265°
2026-05-06 13:46 51.43806 12.36470 1700 ft 129 kts 266°
2026-05-06 13:46 51.43738 12.35021 1534 ft 132 kts 265°
2026-05-06 13:47 51.43672 12.33545 1336 ft 134 kts 266°
2026-05-06 13:47 51.43606 12.32075 1132 ft 132 kts 267°
2026-05-06 13:47 51.43547 12.30617 965 ft 131 kts 268°
2026-05-06 13:47 51.43484 12.29155 786 ft 131 kts 266°
2026-05-06 13:48 51.43408 12.27700 616 ft 132 kts 270°
2026-05-06 13:48 51.43344 12.26250 463 ft 123 kts 267°
2026-05-06 13:48 51.43297 12.25098 457 ft 83 kts 264°
2026-05-06 13:48 51.43260 12.24435 446 ft 44 kts 265°
2026-05-06 13:49 51.43235 12.24018 442 ft 32 kts 264°
2026-05-06 13:49 51.43156 12.23704 450 ft 30 kts 239°
2026-05-06 13:49 51.43080 12.23521 448 ft 0 kts 234°
2026-05-06 13:50 51.43080 12.23520 448 ft 1 kts 234°
2026-05-06 13:50 51.43059 12.23477 447 ft 10 kts 231°
2026-05-06 13:50 51.42982 12.23437 444 ft 14 kts 178°
2026-05-06 13:50 51.42896 12.23352 433 ft 18 kts 259°
2026-05-06 13:51 51.42886 12.23144 436 ft 19 kts 266°
2026-05-06 13:51 51.42877 12.22914 435 ft 21 kts 266°
2026-05-06 13:51 51.42865 12.22679 440 ft 22 kts 264°
2026-05-06 13:51 51.42851 12.22425 437 ft 24 kts 265°
2026-05-06 13:52 51.42842 12.22152 436 ft 25 kts 265°
2026-05-06 13:52 51.42825 12.21869 432 ft 18 kts 264°
2026-05-06 13:52 51.42813 12.21654 430 ft 21 kts 270°
2026-05-06 13:52 51.42807 12.21414 430 ft 22 kts 267°
2026-05-06 13:53 51.42757 12.21230 428 ft 18 kts 200°
2026-05-06 13:53 51.42645 12.21181 440 ft 15 kts 192°
2026-05-06 13:53 51.42552 12.21148 442 ft 13 kts 193°
2026-05-06 13:53 51.42458 12.21105 443 ft 15 kts 196°
2026-05-06 13:54 51.42335 12.21051 438 ft 21 kts 195°
2026-05-06 13:54 51.42181 12.20980 431 ft 25 kts 197°
2026-05-06 13:54 51.42010 12.20911 427 ft 17 kts 172°
2026-05-06 13:54 51.41972 12.21065 428 ft 15 kts 104°
2026-05-06 13:55 51.41944 12.21219 431 ft 14 kts 105°
2026-05-06 13:55 51.41916 12.21393 435 ft 18 kts 104°
2026-05-06 13:55 51.41884 12.21577 438 ft 17 kts 106°
2026-05-06 13:55 51.41854 12.21749 439 ft 16 kts 105°
2026-05-06 13:56 51.41830 12.21910 444 ft 12 kts 86°
2026-05-06 13:56 51.41877 12.21940 443 ft 9 kts 13°
2026-05-06 13:56 51.41916 12.21956 442 ft 0 kts 15°